{"data":{"norad_id":45456,"intl_designator":"2020-020AJ","name":"ONEWEB-0086","alt_names":[],"object_type":"PAYLOAD","status":"ACTIVE","operator":null,"country":"UK","launch_date":"2020-03-21","launch_site_code":"TYMSC","launch_vehicle":null,"mission":null,"orbit_class":"UNKNOWN","rcs_meters":null,"size_class":null,"mass_kg":null,"dimensions":null,"purposes":["comms"],"wikipedia_slug":null,"has_3d_model":false,"image_url":null,"decayed_at":null,"tle_current":{"epoch":"2026-09-20T05:13:05.761056Z","epoch_age_seconds":38887,"freshness":"FRESH","line1":"1 45456U 20020AJ  26263.21742779 -.00000280  00000+0 -82689-3 0  9993","line2":"2 45456  87.8976   2.1785 0001955  78.7643 281.3704 13.11414880315060","mean_motion":13.1141488,"eccentricity":0.0001955,"inclination_deg":87.8976,"raan_deg":2.1785,"arg_perigee_deg":78.7643,"mean_anomaly_deg":281.3704,"bstar":-0.00082689,"rev_number":31506,"period_min":109.80506794311,"perigee_km":1216.205687825,"apogee_km":1219.1756564448,"semimajor_km":7595.8276721349,"source":"CELESTRAK","updated_at":"2026-09-20T09:00:44.559031Z"}}}